Вернуться в каталог

THINK ORBITAL F2

АктивенНаукаVLEO
NORAD 62380·PAYLOAD·🇺🇸 United States
Это название спутника еще не подтверждено официальными источниками.

Запущен Dec 21, 2024 с Vandenberg Space Force Base

Loading…

Ближайшие Пролёты (ближайшие 24 часа)

TLE

СвежийSource: Space-Track

Эпоха: Sep 14, 2026, 10:36 UTC

1 62380U 24247D   26257.44203218  .00006752  00000-0  22232-3 0  9998
2 62380  44.9945 159.2164 0001986  81.4493 278.6617 15.32243542 96684

Отслеживайте THINK ORBITAL F2 в реальном времени с AllMySat

Download on the App Store